CZ-2C DEB

Satellite information

Favourite Embed

Satellite Type and Status

DEBRISIN ORBIT

Key statistics

Satellite CZ-2C DEB at a glance.

Uptime

4219

Days in orbit

Revolutions

≈ 14.3

Per day

Orbit

SSO

Sun Synchronous Orbit

Inclination

98.1

Latest

Satellite identification and parameters

Extended collection of information and parameters for CZ-2C DEB.

Object identification

Identified? True

Debris? True

Object name: CZ-2C DEB

International designator: 2014-014D

Object number (NORAD): 39627

Object ID (CCSDS): 39627

Country: PEOPLES REPUBLIC OF CHINA (PRC)

Current information (Y/N): Y

RCS size: SMALL

Orbital parameters

Period: 100.411 minutes

Inclination: 98.1047 deg

SMA: 7156.171 km

Apoapsis: 888.236 km

Periapsis: 667.837 km

RAAN: 65.1715 deg

Eccentricy: 0.01539927

Argument of periapsis: 312.4406 deg

Mean anomaly: 46.3841 deg

Mean motion: 14.34107371 rev/day

Mean motion (dot): 0.00003748 rev/day2

B* drag term: 0.0011861982 1/REarth

Two-line elements (TLE)

Creation date: Oct. 18, 2025, 2:17 a.m.

Reference frame: TEME

Reference center: EARTH

Epoch: Oct. 17, 2025, 10:53 p.m. UTC

TLE line 0: 0 CZ-2C DEB

TLE line 1: 1 39627U 14014D 25290.95369437 .00003748 00000-0 11862-2 0 9993

TLE line 2: 2 39627 98.1047 65.1715 0153993 312.4406 46.3841 14.34107371600264

Live tracking on map

Real-time ground track for satellite CZ-2C DEB.

In-orbit conjunctions

A list of the most updated potential collisions computed for object CZ-2C DEB.

Target Orbit TCA Probability of collision Miss distance Type
FENGYUN 1C DEB SSO 2025-03-16 09:40:06 0.0001206788 214.0 (m) DEBRIS
ERS 1 SSO 2025-01-30 07:36:19 0.002649417 299.0 (m) PAYLOAD
SL-8 R/B LEO 2024-06-17 04:33:21 0.0001248866 233.0 (m) ROCKET BODY

Associated space launch

CZ-2C DEB was lifted into orbit during the mission ‘Long March 2C | Shijian 11-06’, on board a Long March 2 space rocket.

The launch took place on March 31, 2014, 2:46 a.m. from Launch Area 4 (SLS-2 / 603).

For more information about the launch, click the button.

Launch to space Long March 2C | Shijian 11-06
Long March 2C | Shijian 11-06

Agency: N/A

Status: Launch Successful

Launch date: March 31, 2014, 2:46 a.m. UTC

Rocket: Long March 2

Launch pad: Launch Area 4 (SLS-2 / 603)

Location: Jiuquan Satellite Launch Center, People's Republic of China

...

Latest news about this satellite

There are no fresh news available about this satellite. Check back as we update our databases every day.


Newsletter sign-up

Weekly statistics, charts and insights to help you stay on top of the space industry.